EW4214 Weather Reports


Display with metric or nautical units.
time (UTC)temp
F
wind
direction
speed
MPH
gust
MPH
rain 1hr
in
rain 24hr
in
rain mn
in
humidity
%
barometer
mb
20260504045857 97 143 2.0 6.0 0.00 0.00 0.00 34 1009.5
20260504044857 95 192 0.0 7.0 0.00 0.00 0.00 35 1009.6
20260504043857 94 116 3.0 6.0 0.00 0.00 0.00 34 1009.8
20260504042856 94 200 0.0 6.0 0.00 0.00 0.00 36 1009.8
20260504041857 91 143 0.0 3.0 0.00 0.00 0.00 39 1010.0
20260504040856 91 196 0.0 4.0 0.00 0.00 0.00 40 1010.2
20260504040827 91 148 1.0 3.0 0.00 0.00 0.00 40 1010.3
20260504034856 90 211 2.0 7.0 0.00 0.00 0.00 41 1010.3
20260504034349 90 165 0.0 4.0 0.00 0.00 0.00 42 1010.2
20260504033841 91 174 1.0 7.0 0.00 0.00 0.00 42 1010.4
20260504031857 91 119 2.0 3.0 0.00 0.00 0.00 42 1010.3
20260504030857 90 151 1.0 4.0 0.00 0.00 0.00 43 1010.5
20260504030823 89 100 1.0 6.0 0.00 0.00 0.00 43 1010.7
20260504025352 87 209 1.0 3.0 0.00 0.00 0.00 45 1010.6
20260504024353 87 173 0.0 3.0 0.00 0.00 0.00 45 1010.6
20260504022856 86 165 1.0 3.0 0.00 0.00 0.00 46 1010.6
20260504021852 84 246 3.0 7.0 0.00 0.00 0.00 49 1010.5
20260504020850 84 203 1.0 4.0 0.00 0.00 0.00 48 1010.5
20260504020327 84 215 1.0 4.0 0.00 0.00 0.00 49 1010.6
20260504014839 84 153 1.0 3.0 0.00 0.00 0.00 50 1010.6
20260504013839 83 94 2.0 3.0 0.00 0.00 0.00 51 1010.7
20260504012833 82 148 1.0 3.0 0.00 0.00 0.00 51 1010.7
20260504011837 81 175 0.0 2.0 0.00 0.00 0.00 52 1010.5
20260504011751 81 168 1.0 3.0 0.00 0.00 0.00 53 1010.5
20260504005832 80 156 1.0 3.0 0.00 0.00 0.00 53 1010.4
20260504004833 79 136 0.0 3.0 0.00 0.00 0.00 54 1010.3
20260504003833 78 175 0.0 2.0 0.00 0.00 0.00 55 1010.2
20260504002832 78 148 1.0 3.0 0.00 0.00 0.00 55 1010.2
20260504001833 77 151 1.0 2.0 0.00 0.00 0.00 56 1010.2
20260504001754 77 180 0.0 3.0 0.00 0.00 0.00 56 1010.1
20260503235833 76 164 0.0 3.0 0.00 0.00 0.00 57 1009.9
20260503234833 76 166 0.0 2.0 0.00 0.00 0.00 57 1009.8
20260503233833 75 167 0.0 2.0 0.00 0.00 0.00 57 1009.6
20260503232833 75 166 0.0 1.0 0.00 0.00 0.00 58 1009.6
20260503232319 75 175 0.0 0.0 0.00 0.00 0.00 58 1009.7
20260503230833 75 179 0.0 0.0 0.00 0.00 0.00 58 1009.6
20260503225832 75 174 0.0 1.0 0.00 0.00 0.00 58 1009.5
20260503224832 75 181 0.0 1.0 0.00 0.00 0.00 58 1009.5
20260503224322 75 180 0.0 0.0 0.00 0.00 0.00 58 1009.5
20260503222832 75 175 0.0 1.0 0.00 0.00 0.00 57 1009.3
20260503221833 75 172 0.0 1.0 0.00 0.00 0.00 57 1009.2
20260503220833 75 173 0.0 1.0 0.00 0.00 0.00 57 1009.0
20260503220524 75 181 0.0 1.0 0.00 0.00 0.00 57 1008.8
20260503215514 76 178 0.0 1.0 0.00 0.00 0.00 57 1008.7
20260503213957 75 178 0.0 2.0 0.00 0.00 0.00 57 1008.6
20260503212953 75 173 0.0 3.0 0.00 0.00 0.00 57 1008.5
20260503212513 76 169 0.0 2.0 0.00 0.00 0.00 57 1008.4
20260503211458 76 167 0.0 0.0 0.00 0.00 0.00 56 1008.3
20260503205945 76 171 0.0 1.0 0.00 0.00 0.00 57 1008.1
20260503204943 76 170 0.0 3.0 0.00 0.00 0.00 56 1008.1
20260503203940 76 171 0.0 2.0 0.00 0.00 0.00 56 1008.1
20260503202937 76 155 1.0 3.0 0.00 0.00 0.00 56 1008.2
20260503201952 76 179 0.0 1.0 0.00 0.00 0.00 56 1008.3
20260503201931 76 138 2.0 2.0 0.00 0.00 0.00 56 1008.2
20260503195924 77 159 0.0 2.0 0.00 0.00 0.00 55 1008.3
20260503194921 77 180 0.0 3.0 0.00 0.00 0.00 56 1008.5
20260503193920 77 130 1.0 4.0 0.00 0.00 0.00 56 1008.5
20260503192919 77 149 1.0 2.0 0.00 0.00 0.00 56 1008.5
20260503191912 77 178 0.0 2.0 0.00 0.00 0.00 56 1008.6
20260503190913 77 162 1.0 2.0 0.00 0.00 0.00 56 1008.6
20260503185905 78 177 0.0 2.0 0.00 0.00 0.00 56 1008.7
20260503184901 78 169 0.0 1.0 0.00 0.00 0.00 57 1008.8
20260503184400 78 177 0.0 1.0 0.00 0.00 0.00 57 1008.9
20260503183358 78 176 0.0 1.0 0.00 0.00 0.00 57 1009.0
20260503181851 79 182 0.0 0.0 0.00 0.00 0.00 56 1009.2
20260503180858 79 182 0.0 0.0 0.00 0.00 0.00 56 1009.1
20260503180848 79 182 0.0 0.0 0.00 0.00 0.00 56 1009.2
20260503175341 79 182 0.0 0.0 0.00 0.00 0.00 56 1009.2
20260503173842 79 184 0.0 0.0 0.00 0.00 0.00 55 1009.2
20260503172835 79 176 0.0 0.0 0.00 0.00 0.00 55 1009.1
20260503171833 79 178 0.0 0.0 0.00 0.00 0.00 55 1009.2
20260503171328 79 180 0.0 0.0 0.00 0.00 0.00 54 1009.3
20260503150830 80 193 0.0 1.0 0.00 0.00 0.00 51 1008.6
20260503130829 80 165 1.0 3.0 0.00 0.00 0.00 51 1007.8
20260503110308 84 192 0.0 2.0 0.00 0.00 0.00 46 1005.9
20260503090506 83 213 0.0 2.0 0.00 0.00 0.00 43 1005.2
20260503080935 79 208 1.0 2.0 0.00 0.00 0.00 51 1006.1
20260503072920 78 194 0.0 1.0 0.00 0.00 0.00 54 1007.7
20260503071921 78 198 0.0 4.0 0.00 0.00 0.00 54 1007.9
20260503070915 78 176 0.0 1.0 0.00 0.00 0.00 54 1007.4
20260503070421 79 204 0.0 3.0 0.00 0.00 0.00 52 1008.4